FW4781 Weather Reports


time (UTC)temp
F
wind
direction
speed
knots
gust
knots
rain 1hr
in
rain 24hr
in
rain mn
in
humidity
%
barometer
mb
20260507040104 55 107 0.0 0.0 0.00 0.00 0.00 89 1019.5
20260507035104 55 107 0.0 0.0 0.00 0.00 0.00 89 1019.4
20260507034104 55 107 0.0 0.0 0.00 0.00 0.00 89 1019.2
20260507033104 55 107 0.0 0.0 0.00 0.00 0.00 89 1019.2
20260507032104 55 107 0.0 0.0 0.00 0.00 0.00 89 1019.1
20260507031104 55 107 0.0 0.0 0.00 0.00 0.00 89 1019.1
20260507024104 56 107 0.0 0.0 0.00 0.00 0.00 88 1019.0
20260507023104 56 107 0.0 0.0 0.00 0.00 0.00 88 1019.0
20260507022104 56 107 0.0 0.0 0.00 0.00 0.00 88 1019.0
20260507021104 55 107 0.0 0.0 0.00 0.00 0.00 88 1019.0
20260507020104 55 107 0.0 0.0 0.00 0.00 0.00 88 1019.0
20260507015104 55 107 0.0 0.0 0.00 0.00 0.00 88 1018.9
20260507014104 55 107 0.0 0.0 0.00 0.00 0.00 88 1018.9
20260507013103 56 107 0.0 0.0 0.00 0.00 0.00 88 1018.9
20260507010104 55 107 0.0 0.0 0.00 0.00 0.00 88 1019.0
20260507005104 55 107 0.0 0.0 0.00 0.00 0.00 88 1019.1
20260507004104 55 107 0.0 0.0 0.00 0.00 0.00 88 1019.0
20260507003104 56 107 0.0 0.0 0.00 0.00 0.00 88 1019.0
20260507001115 56 107 2.6 6.1 0.00 0.00 0.00 87 1019.0
20260506235105 57 103 4.3 7.0 0.00 0.00 0.00 86 1018.9
20260506233104 57 104 3.5 6.1 0.00 0.00 0.00 84 1019.0
20260506232104 57 126 0.0 0.0 0.00 0.00 0.00 81 1019.0
20260506231105 58 126 0.0 0.0 0.00 0.00 0.00 82 1019.0
20260506230104 58 125 0.0 5.2 0.00 0.00 0.00 82 1019.0
20260506225104 58 125 0.0 5.2 0.00 0.00 0.00 82 1019.0
20260506224104 57 126 0.0 2.6 0.00 0.00 0.00 81 1019.1
20260506223104 57 126 0.0 4.3 0.00 0.00 0.00 81 1019.1
20260506220104 58 126 1.7 5.2 0.00 0.00 0.00 80 1019.2
20260506215103 58 132 0.9 2.6 0.00 0.00 0.00 79 1019.4
20260506214104 58 137 0.0 4.3 0.00 0.00 0.00 80 1019.4
20260506213103 57 140 0.0 6.1 0.00 0.00 0.00 80 1019.4
20260506212103 57 207 0.0 6.1 0.00 0.00 0.00 80 1019.4
20260506211104 57 130 1.7 7.8 0.00 0.00 0.00 80 1019.4
20260506205104 57 163 0.9 4.3 0.00 0.00 0.00 79 1019.3
20260506204104 58 118 0.0 7.0 0.00 0.00 0.00 81 1019.1
20260506203104 57 144 0.0 4.3 0.00 0.00 0.00 80 1019.1
20260506202103 57 213 0.9 7.0 0.00 0.00 0.00 80 1019.1
20260506200104 57 196 0.9 6.1 0.00 0.00 0.00 80 1019.1
20260506195103 57 146 0.0 0.0 0.00 0.00 0.00 81 1019.0
20260506194104 57 207 0.0 2.6 0.00 0.00 0.00 82 1019.0
20260506193103 56 160 0.0 5.2 0.00 0.00 0.00 81 1019.0
20260506192104 56 225 0.9 6.1 0.00 0.00 0.00 81 1019.0
20260506190105 56 268 1.7 6.1 0.00 0.00 0.00 83 1019.0
20260506184103 55 181 0.9 6.1 0.00 0.00 0.00 84 1018.9
20260506183103 55 160 0.0 5.2 0.00 0.00 0.00 85 1018.9
20260506182104 55 221 2.6 7.0 0.00 0.00 0.00 85 1018.8
20260506181103 56 151 0.0 5.2 0.00 0.00 0.00 85 1018.5
20260506180104 55 134 1.7 7.8 0.00 0.00 0.00 85 1018.5
20260506175104 55 128 0.9 5.2 0.00 0.00 0.00 87 1018.6
20260506174104 54 213 1.7 8.7 0.00 0.00 0.00 87 1018.2
20260506173104 55 124 0.9 6.1 0.00 0.00 0.00 88 1018.2
20260506172104 55 134 0.9 5.2 0.00 0.00 0.00 89 1018.4
20260506171104 55 131 0.0 4.3 0.00 0.00 0.00 88 1018.5
20260506170104 55 119 1.7 8.7 0.00 0.00 0.00 88 1018.5
20260506165104 55 98 0.9 6.1 0.00 0.00 0.00 88 1018.3
20260506164104 55 156 0.0 4.3 0.00 0.00 0.00 88 1018.3
20260506163104 55 177 0.0 5.2 0.00 0.00 0.00 88 1018.3
20260506162105 55 132 0.9 2.6 0.00 0.00 0.00 87 1018.3
20260506161104 55 129 0.0 8.7 0.00 0.00 0.00 88 1017.9
20260506155105 55 158 1.7 7.8 0.00 0.00 0.00 90 1017.7
20260506154104 54 128 4.3 7.8 0.00 0.00 0.00 90 1017.8
20260506153104 54 124 4.3 8.7 0.00 0.00 0.00 90 1017.8
20260506152104 54 123 1.7 7.0 0.00 0.00 0.00 91 1017.9
20260506151104 54 125 4.3 7.0 0.00 0.00 0.00 91 1018.0
20260506145104 53 123 1.7 7.8 0.00 0.00 0.00 92 1017.9
20260506144104 53 120 5.2 10.4 0.00 0.00 0.00 92 1017.6
20260506143104 54 125 6.1 8.7 0.00 0.00 0.00 91 1017.6
20260506142104 54 119 4.3 7.0 0.00 0.00 0.00 91 1017.7
20260506141104 53 139 0.0 5.2 0.00 0.00 0.00 91 1017.5
20260506140104 53 202 0.0 4.3 0.00 0.00 0.00 91 1017.5
20260506134104 53 152 1.7 6.1 0.00 0.00 0.00 91 1017.5
20260506131104 53 192 0.0 7.8 0.00 0.00 0.00 91 1017.4
20260506130104 53 200 0.0 6.1 0.00 0.00 0.00 91 1017.4
20260506125104 53 229 0.0 6.1 0.00 0.00 0.00 92 1017.3
20260506124104 53 161 0.0 4.3 0.00 0.00 0.00 93 1016.9
20260506123104 53 187 0.0 0.0 0.00 0.00 0.00 93 1016.9
20260506122104 53 187 0.0 0.0 0.00 0.00 0.00 93 1017.1
20260506121104 53 185 0.0 0.0 0.00 0.00 0.00 94 1016.9
20260506115105 53 194 0.0 0.0 0.00 0.00 0.00 95 1016.8
20260506111104 52 219 0.0 4.3 0.00 0.00 0.00 96 1016.4
20260506110104 51 98 0.0 0.0 0.00 0.00 0.00 96 1016.4
20260506105104 50 96 0.0 0.0 0.00 0.00 0.00 96 1016.4
20260506104104 50 96 0.0 0.0 0.00 0.00 0.00 96 1016.4
20260506103104 50 96 0.0 0.0 0.00 0.00 0.00 96 1016.4
20260506101105 49 96 0.0 0.0 0.00 0.00 0.00 96 1016.3
20260506100104 48 96 0.0 0.0 0.00 0.00 0.00 96 1016.3
20260506094105 49 96 0.0 0.0 0.00 0.00 0.00 96 1015.9
20260506093104 49 96 0.0 0.0 0.00 0.00 0.00 95 1015.9
20260506092104 49 96 0.0 0.0 0.00 0.00 0.00 95 1015.9
20260506091104 49 96 0.0 0.0 0.00 0.00 0.00 95 1015.9
20260506090104 49 96 0.0 0.0 0.00 0.00 0.00 95 1015.9
20260506085104 49 96 0.0 0.0 0.00 0.00 0.00 95 1015.8
20260506083104 50 96 0.0 0.0 0.00 0.00 0.00 95 1015.6
20260506082104 50 96 0.0 0.0 0.00 0.00 0.00 95 1015.4
20260506081105 50 96 0.0 0.0 0.00 0.00 0.00 95 1015.3
20260506080105 50 96 0.0 0.0 0.00 0.00 0.00 95 1015.3
20260506073105 51 96 0.0 0.0 0.00 0.00 0.00 95 1015.3
20260506072105 51 96 0.0 0.0 0.00 0.00 0.00 95 1015.0
20260506071104 51 96 0.0 0.0 0.00 0.00 0.00 95 1014.9
20260506070104 51 96 0.0 0.0 0.00 0.00 0.00 95 1014.9
20260506062104 52 96 0.0 0.0 0.00 0.00 0.00 94 1014.7
20260506061105 53 96 0.0 0.0 0.00 0.00 0.00 94 1014.6
20260506060104 53 96 0.0 0.0 0.00 0.00 0.00 94 1014.6
20260506050104 54 96 0.0 0.0 0.00 0.00 0.00 93 1013.8
20260506045104 55 96 0.0 0.0 0.00 0.00 0.00 92 1013.8
20260506044104 55 96 0.0 0.0 0.00 0.00 0.00 92 1013.8